When you browse on this site, cookies collect data to enhance your experience and personalize the content and advertising you see.
Visit our Privacy Policy to learn more. By continuing to use the site, you agree to this use of cookies and data.
  • în România
  • Lista ţărilor
  • Pe 7 zile
  • Temperatura apei
  • Meteo pe hartă
  • Widget-uri
  • user-avatar
    Intrare

    Meteo pe oră la Madrid

    Astăzi, 24 Februarie, Luni

    Timp Temperatura Precipitaţii Vânt Presiune Umiditate
    00:00 +12°C° 0 mm 1 m/s 715 mmHg 44%
    01:00 +11°C° 0 mm 1 m/s 715 mmHg 45%
    02:00 +11°C° 0 mm 1 m/s 714 mmHg 46%
    03:00 +11°C° 0 mm 1 m/s 714 mmHg 47%
    04:00 +10°C° 0 mm 1 m/s 714 mmHg 47%
    05:00 +10°C° 0 mm 1 m/s 714 mmHg 47%
    06:00 +9°C° 0 mm 1 m/s 714 mmHg 47%
    07:00 +11°C° 0 mm 1 m/s 714 mmHg 43%
    08:00 +12°C° 0 mm 1 m/s 714 mmHg 39%
    09:00 +14°C° 0 mm 1 m/s 714 mmHg 36%
    10:00 +15°C° 0 mm 1 m/s 714 mmHg 33%
    11:00 +18°C° 0 mm 1 m/s 714 mmHg 31%
    12:00 +19°C° 0 mm 1 m/s 713 mmHg 28%
    13:00 +19°C° 0 mm 2 m/s 713 mmHg 28%
    14:00 +20°C° 0 mm 2 m/s 712 mmHg 27%
    15:00 +21°C° 0 mm 3 m/s 712 mmHg 27%
    16:00 +19°C° 0 mm 3 m/s 711 mmHg 32%
    17:00 +18°C° 0 mm 3 m/s 711 mmHg 36%
    18:00 +16°C° 0 mm 3 m/s 710 mmHg 41%
    19:00 +15°C° 0 mm 2 m/s 711 mmHg 43%
    20:00 +14°C° 0 mm 2 m/s 711 mmHg 45%
    21:00 +13°C° 0 mm 2 m/s 711 mmHg 46%
    22:00 +13°C° 0 mm 2 m/s 711 mmHg 48%
    23:00 +12°C° 0 mm 2 m/s 711 mmHg 50%

    Mâine, 25 Februarie, Marţi

    Timp Temperatura Precipitaţii Vânt Presiune Umiditate
    00:00 +10°C° 0 mm 2 m/s 711 mmHg 52%
    01:00 +10°C° 0 mm 2 m/s 710 mmHg 53%
    02:00 +10°C° 0 mm 2 m/s 709 mmHg 54%
    03:00 +9°C° 0 mm 2 m/s 709 mmHg 54%
    04:00 +9°C° 0 mm 2 m/s 709 mmHg 53%
    05:00 +9°C° 0 mm 2 m/s 709 mmHg 52%
    06:00 +9°C° 0 mm 2 m/s 709 mmHg 52%
    07:00 +10°C° 0 mm 2 m/s 709 mmHg 48%
    08:00 +10°C° 0 mm 2 m/s 709 mmHg 43%
    09:00 +11°C° 0 mm 3 m/s 709 mmHg 39%
    10:00 +12°C° 0 mm 3 m/s 709 mmHg 37%
    11:00 +13°C° 0 mm 3 m/s 709 mmHg 35%
    12:00 +14°C° 0 mm 3 m/s 709 mmHg 33%
    13:00 +15°C° 0 mm 4 m/s 709 mmHg 36%
    14:00 +15°C° 0 mm 4 m/s 708 mmHg 39%
    15:00 +15°C° 0 mm 5 m/s 708 mmHg 42%
    16:00 +15°C° 0 mm 5 m/s 708 mmHg 48%
    17:00 +14°C° 0 mm 4 m/s 708 mmHg 53%
    18:00 +13°C° 0 mm 4 m/s 708 mmHg 59%
    19:00 +12°C° 0 mm 4 m/s 708 mmHg 63%
    20:00 +11°C° 0 mm 4 m/s 708 mmHg 66%
    21:00 +11°C° 0 mm 4 m/s 709 mmHg 70%
    22:00 +10°C° 0 mm 4 m/s 709 mmHg 70%
    23:00 +10°C° 0 mm 4 m/s 709 mmHg 71%

    Poimâine, 26 Februarie, Miercuri

    Timp Temperatura Precipitaţii Vânt Presiune Umiditate
    00:00 +10°C° 0 mm 4 m/s 709 mmHg 72%
    01:00 +8°C° 0 mm 4 m/s 709 mmHg 72%
    02:00 +8°C° 0 mm 5 m/s 709 mmHg 72%
    03:00 +7°C° 0 mm 5 m/s 709 mmHg 72%
    04:00 +7°C° 0 mm 4 m/s 709 mmHg 70%
    05:00 +6°C° 0 mm 4 m/s 709 mmHg 68%
    06:00 +5°C° 0 mm 4 m/s 709 mmHg 67%
    07:00 +6°C° 0 mm 4 m/s 709 mmHg 63%
    08:00 +6°C° 0 mm 4 m/s 709 mmHg 59%
    09:00 +7°C° 0 mm 4 m/s 710 mmHg 54%
    10:00 +8°C° 0 mm 4 m/s 710 mmHg 49%
    11:00 +10°C° 0 mm 4 m/s 710 mmHg 43%
    12:00 +12°C° 0 mm 4 m/s 710 mmHg 37%
    13:00 +12°C° 0 mm 4 m/s 709 mmHg 35%
    14:00 +13°C° 0 mm 4 m/s 709 mmHg 32%
    15:00 +13°C° 0 mm 4 m/s 709 mmHg 30%
    16:00 +12°C° 0 mm 4 m/s 709 mmHg 33%
    17:00 +11°C° 0 mm 3 m/s 709 mmHg 36%
    18:00 +10°C° 0 mm 3 m/s 709 mmHg 40%
    19:00 +10°C° 0 mm 3 m/s 709 mmHg 42%
    20:00 +9°C° 0 mm 2 m/s 710 mmHg 45%
    21:00 +8°C° 0 mm 2 m/s 710 mmHg 47%
    22:00 +8°C° 0 mm 2 m/s 710 mmHg 50%
    23:00 +7°C° 0 mm 2 m/s 710 mmHg 52%

    27 Februarie, Joi

    Timp Temperatura Precipitaţii Vânt Presiune Umiditate
    00:00 +7°C° 0 mm 2 m/s 710 mmHg 55%
    01:00 +7°C° 0 mm 2 m/s 710 mmHg 57%
    02:00 +6°C° 0 mm 2 m/s 710 mmHg 58%
    03:00 +7°C° 0 mm 1 m/s 710 mmHg 60%
    04:00 +7°C° 0 mm 1 m/s 710 mmHg 61%
    05:00 +6°C° 0 mm 1 m/s 710 mmHg 61%
    06:00 +6°C° 0 mm 1 m/s 710 mmHg 62%
    07:00 +7°C° 0 mm 1 m/s 710 mmHg 59%
    08:00 +8°C° 0 mm 1 m/s 710 mmHg 55%
    09:00 +9°C° 0 mm 1 m/s 711 mmHg 52%
    10:00 +10°C° 0 mm 2 m/s 711 mmHg 48%
    11:00 +13°C° 0 mm 2 m/s 710 mmHg 44%
    12:00 +14°C° 0 mm 3 m/s 710 mmHg 41%
    13:00 +16°C° 0 mm 3 m/s 710 mmHg 38%
    14:00 +17°C° 0 mm 3 m/s 710 mmHg 34%
    15:00 +18°C° 0 mm 4 m/s 709 mmHg 31%
    16:00 +16°C° 0 mm 3 m/s 709 mmHg 35%
    17:00 +14°C° 0 mm 3 m/s 709 mmHg 40%
    18:00 +13°C° 0 mm 3 m/s 709 mmHg 45%
    19:00 +12°C° 0 mm 3 m/s 709 mmHg 47%
    20:00 +12°C° 0 mm 2 m/s 710 mmHg 49%
    21:00 +10°C° 0 mm 2 m/s 710 mmHg 51%
    22:00 +10°C° 0 mm 2 m/s 710 mmHg 52%
    23:00 +10°C° 0 mm 1 m/s 710 mmHg 54%

    28 Februarie, Vineri

    Timp Temperatura Precipitaţii Vânt Presiune Umiditate
    00:00 +10°C° 0 mm 1 m/s 710 mmHg 55%
    01:00 +9°C° 0 mm 1 m/s 710 mmHg 56%
    02:00 +9°C° 0 mm 1 m/s 709 mmHg 57%
    03:00 +9°C° 0 mm 1 m/s 709 mmHg 57%
    04:00 +8°C° 0 mm 1 m/s 709 mmHg 57%
    05:00 +8°C° 0 mm 1 m/s 709 mmHg 57%
    06:00 +8°C° 0 mm 1 m/s 708 mmHg 58%
    07:00 +9°C° 0 mm 1 m/s 709 mmHg 54%
    08:00 +11°C° 0 mm 1 m/s 709 mmHg 51%
    09:00 +12°C° 0 mm 1 m/s 709 mmHg 47%
    10:00 +13°C° 0 mm 1 m/s 708 mmHg 43%
    11:00 +15°C° 0 mm 1 m/s 708 mmHg 39%
    12:00 +16°C° 0 mm 1 m/s 708 mmHg 36%
    13:00 +18°C° 0 mm 1 m/s 707 mmHg 34%
    14:00 +18°C° 0 mm 1 m/s 707 mmHg 32%
    15:00 +18°C° 0 mm 2 m/s 706 mmHg 30%
    16:00 +17°C° 0 mm 2 m/s 706 mmHg 34%
    17:00 +16°C° 0 mm 2 m/s 706 mmHg 38%
    18:00 +14°C° 0 mm 2 m/s 705 mmHg 42%
    19:00 +14°C° 0 mm 2 m/s 706 mmHg 44%
    20:00 +13°C° 0 mm 2 m/s 706 mmHg 47%
    21:00 +11°C° 0 mm 3 m/s 706 mmHg 49%
    22:00 +11°C° 0 mm 3 m/s 706 mmHg 53%
    23:00 +10°C° 0 mm 3 m/s 706 mmHg 56%

    29 Februarie, Sâmbătă

    Timp Temperatura Precipitaţii Vânt Presiune Umiditate
    00:00 +10°C° 0 mm 3 m/s 706 mmHg 59%
    01:00 +9°C° 0 mm 3 m/s 706 mmHg 62%
    02:00 +9°C° 0 mm 3 m/s 706 mmHg 64%
    03:00 +8°C° 0 mm 3 m/s 706 mmHg 67%
    04:00 +8°C° 0 mm 3 m/s 707 mmHg 67%
    05:00 +7°C° 0 mm 2 m/s 707 mmHg 68%
    06:00 +7°C° 0 mm 2 m/s 707 mmHg 69%
    07:00 +8°C° 0 mm 2 m/s 707 mmHg 66%
    08:00 +9°C° 0 mm 2 m/s 707 mmHg 64%
    09:00 +10°C° 0 mm 3 m/s 708 mmHg 62%
    10:00 +11°C° 0 mm 4 m/s 707 mmHg 57%
    11:00 +13°C° 0 mm 5 m/s 707 mmHg 53%
    12:00 +14°C° 0 mm 6 m/s 707 mmHg 49%
    13:00 +14°C° 0 mm 6 m/s 707 mmHg 52%
    14:00 +14°C° 0 mm 6 m/s 706 mmHg 55%
    15:00 +14°C° 0 mm 6 m/s 706 mmHg 58%
    16:00 +14°C° 0 mm 6 m/s 706 mmHg 62%
    17:00 +13°C° 0 mm 6 m/s 706 mmHg 65%
    18:00 +13°C° 0 mm 6 m/s 706 mmHg 69%
    19:00 +11°C° 0 mm 6 m/s 706 mmHg 73%
    20:00 +10°C° 0 mm 5 m/s 707 mmHg 77%
    21:00 +10°C° 0 mm 5 m/s 707 mmHg 80%
    22:00 +10°C° 0 mm 5 m/s 707 mmHg 81%
    23:00 +9°C° 0 mm 5 m/s 707 mmHg 81%
    Arată mai mult